owner,sensor,date,latitude,longitude,vertical_datum,sea_water_temperature,qcFlag
ADCP,ioos:station:wmo:42388:1,2021-03-01T00:06:00Z,27.7297,-91.1086,9.2,21.3,11111222
ADCP,ioos:station:wmo:42388:1,2021-03-01T00:16:00Z,27.7297,-91.1086,9.3,21.3,11111222
ADCP,ioos:station:wmo:42388:1,2021-03-01T00:26:00Z,27.7297,-91.1086,9.2,21.4,11111222
ADCP,ioos:station:wmo:42388:1,2021-03-01T00:36:00Z,27.7297,-91.1086,9.3,21.5,11111222
ADCP,ioos:station:wmo:42388:1,2021-03-01T00:46:00Z,27.7297,-91.1086,9.3,21.4,11111222
ADCP,ioos:station:wmo:42388:1,2021-03-01T00:56:00Z,27.7297,-91.1086,9.3,21.3,11111222
ADCP,ioos:station:wmo:42388:1,2021-03-01T01:06:00Z,27.7297,-91.1086,9.4,21.2,11111222
ADCP,ioos:station:wmo:42388:1,2021-03-01T01:16:00Z,27.7297,-91.1086,9.4,21.2,11111222
ADCP,ioos:station:wmo:42388:1,2021-03-01T01:26:00Z,27.7297,-91.1086,9.4,21.3,11111222
ADCP,ioos:station:wmo:42388:1,2021-03-01T01:36:00Z,27.7297,-91.1086,9.2,21.3,11111222
ADCP,ioos:station:wmo:42388:1,2021-03-01T01:46:00Z,27.7297,-91.1086,9.2,21.4,11111222
ADCP,ioos:station:wmo:42388:1,2021-03-01T01:56:00Z,27.7297,-91.1086,9.3,21.4,11111222
ADCP,ioos:station:wmo:42388:1,2021-03-01T02:06:00Z,27.7297,-91.1086,9.4,21.4,11111222
ADCP,ioos:station:wmo:42388:1,2021-03-01T02:16:00Z,27.7297,-91.1086,9.3,21.4,11111222
ADCP,ioos:station:wmo:42388:1,2021-03-01T02:26:00Z,27.7297,-91.1086,9.4,21.4,11111222
ADCP,ioos:station:wmo:42388:1,2021-03-01T02:36:00Z,27.7297,-91.1086,9.3,21.3,11111222
ADCP,ioos:station:wmo:42388:1,2021-03-01T02:47:00Z,27.7297,-91.1086,9.3,21.3,11111222
ADCP,ioos:station:wmo:42388:1,2021-03-01T02:57:00Z,27.7297,-91.1086,9.3,21.4,11111222
ADCP,ioos:station:wmo:42388:1,2021-03-01T03:07:00Z,27.7297,-91.1086,9.3,21.3,11111222
ADCP,ioos:station:wmo:42388:1,2021-03-01T03:17:00Z,27.7297,-91.1086,9.4,21.3,11111222
ADCP,ioos:station:wmo:42388:1,2021-03-01T03:27:00Z,27.7297,-91.1086,9.2,21.3,11111222
ADCP,ioos:station:wmo:42388:1,2021-03-01T03:37:00Z,27.7297,-91.1086,9.4,21.3,11111222
ADCP,ioos:station:wmo:42388:1,2021-03-01T03:47:00Z,27.7297,-91.1086,9.4,21.3,11111222
ADCP,ioos:station:wmo:42388:1,2021-03-01T03:57:00Z,27.7297,-91.1086,9.3,21.3,11111222
ADCP,ioos:station:wmo:42388:1,2021-03-01T04:07:00Z,27.7297,-91.1086,9.3,21.2,11111222
ADCP,ioos:station:wmo:42388:1,2021-03-01T04:17:00Z,27.7297,-91.1086,9.5,21.2,11111222
ADCP,ioos:station:wmo:42388:1,2021-03-01T04:27:00Z,27.7297,-91.1086,9.3,21.2,11111222
ADCP,ioos:station:wmo:42388:1,2021-03-01T04:37:00Z,27.7297,-91.1086,9.4,21.2,11111222
ADCP,ioos:station:wmo:42388:1,2021-03-01T04:47:00Z,27.7297,-91.1086,9.4,21.2,11111222
ADCP,ioos:station:wmo:42388:1,2021-03-01T04:57:00Z,27.7297,-91.1086,9.4,21.3,11111222
ADCP,ioos:station:wmo:42388:1,2021-03-01T05:07:00Z,27.7297,-91.1086,9.3,21.3,11111222
ADCP,ioos:station:wmo:42388:1,2021-03-01T05:17:00Z,27.7297,-91.1086,9.3,21.3,11111222
ADCP,ioos:station:wmo:42388:1,2021-03-01T05:27:00Z,27.7297,-91.1086,9.3,21.5,11111222
ADCP,ioos:station:wmo:42388:1,2021-03-01T05:37:00Z,27.7297,-91.1086,9.3,21.4,11111222
ADCP,ioos:station:wmo:42388:1,2021-03-01T05:47:00Z,27.7297,-91.1086,9.4,21.6,11111222
ADCP,ioos:station:wmo:42388:1,2021-03-01T05:57:00Z,27.7297,-91.1086,9.2,21.7,11111222
ADCP,ioos:station:wmo:42388:1,2021-03-01T06:07:00Z,27.7297,-91.1086,9.3,21.8,11111222
ADCP,ioos:station:wmo:42388:1,2021-03-01T06:17:00Z,27.7297,-91.1086,9.4,21.8,11111222
ADCP,ioos:station:wmo:42388:1,2021-03-01T06:27:00Z,27.7297,-91.1086,9.3,21.8,11111222
ADCP,ioos:station:wmo:42388:1,2021-03-01T06:37:00Z,27.7297,-91.1086,9.4,21.8,11111222
ADCP,ioos:station:wmo:42388:1,2021-03-01T06:47:00Z,27.7297,-91.1086,9.4,21.8,11111222
ADCP,ioos:station:wmo:42388:1,2021-03-01T06:57:00Z,27.7297,-91.1086,9.4,21.8,11111222
ADCP,ioos:station:wmo:42388:1,2021-03-01T07:07:00Z,27.7297,-91.1086,9.5,21.8,11111222
ADCP,ioos:station:wmo:42388:1,2021-03-01T07:17:00Z,27.7297,-91.1086,9.4,21.8,11111222
ADCP,ioos:station:wmo:42388:1,2021-03-01T07:27:00Z,27.7297,-91.1086,9.5,21.8,11111222
ADCP,ioos:station:wmo:42388:1,2021-03-01T07:37:00Z,27.7297,-91.1086,9.4,21.8,11111222
ADCP,ioos:station:wmo:42388:1,2021-03-01T07:47:00Z,27.7297,-91.1086,9.4,21.8,11111222
ADCP,ioos:station:wmo:42388:1,2021-03-01T07:57:00Z,27.7297,-91.1086,9.3,21.8,11111222
ADCP,ioos:station:wmo:42388:1,2021-03-01T08:07:00Z,27.7297,-91.1086,9.3,21.8,11111222
ADCP,ioos:station:wmo:42388:1,2021-03-01T08:17:00Z,27.7297,-91.1086,9.3,21.8,11111222
ADCP,ioos:station:wmo:42388:1,2021-03-01T08:27:00Z,27.7297,-91.1086,9.4,21.8,11111222
ADCP,ioos:station:wmo:42388:1,2021-03-01T08:37:00Z,27.7297,-91.1086,9.2,21.8,11111222
ADCP,ioos:station:wmo:42388:1,2021-03-01T08:47:00Z,27.7297,-91.1086,9.4,21.8,11111222
ADCP,ioos:station:wmo:42388:1,2021-03-01T08:57:00Z,27.7297,-91.1086,9.4,21.8,11111222
ADCP,ioos:station:wmo:42388:1,2021-03-01T09:07:00Z,27.7297,-91.1086,9.3,21.8,11111222
ADCP,ioos:station:wmo:42388:1,2021-03-01T09:17:00Z,27.7297,-91.1086,9.3,21.8,11111222
ADCP,ioos:station:wmo:42388:1,2021-03-01T09:27:00Z,27.7297,-91.1086,9.4,21.8,11111222
ADCP,ioos:station:wmo:42388:1,2021-03-01T09:37:00Z,27.7297,-91.1086,9.5,21.8,11111222
ADCP,ioos:station:wmo:42388:1,2021-03-01T09:47:00Z,27.7297,-91.1086,9.3,21.8,11111222
ADCP,ioos:station:wmo:42388:1,2021-03-01T09:57:00Z,27.7297,-91.1086,9.4,21.8,11111222
ADCP,ioos:station:wmo:42388:1,2021-03-01T10:07:00Z,27.7297,-91.1086,9.5,21.8,11111222
ADCP,ioos:station:wmo:42388:1,2021-03-01T10:17:00Z,27.7297,-91.1086,9.4,21.8,11111222
ADCP,ioos:station:wmo:42388:1,2021-03-01T10:27:00Z,27.7297,-91.1086,9.2,21.8,11111222
ADCP,ioos:station:wmo:42388:1,2021-03-01T10:37:00Z,27.7297,-91.1086,9.3,21.8,11111222
ADCP,ioos:station:wmo:42388:1,2021-03-01T10:47:00Z,27.7297,-91.1086,9.3,21.8,11111222
ADCP,ioos:station:wmo:42388:1,2021-03-01T10:57:00Z,27.7297,-91.1086,9.5,21.9,11111222
ADCP,ioos:station:wmo:42388:1,2021-03-01T11:07:00Z,27.7297,-91.1086,9.7,21.9,11111222
ADCP,ioos:station:wmo:42388:1,2021-03-01T11:17:00Z,27.7297,-91.1086,9.6,21.9,11111222
ADCP,ioos:station:wmo:42388:1,2021-03-01T11:27:00Z,27.7297,-91.1086,9.7,21.9,11111222
ADCP,ioos:station:wmo:42388:1,2021-03-01T11:37:00Z,27.7297,-91.1086,9.8,21.9,11111222
ADCP,ioos:station:wmo:42388:1,2021-03-01T11:47:00Z,27.7297,-91.1086,9.8,21.9,11111222
ADCP,ioos:station:wmo:42388:1,2021-03-01T11:57:00Z,27.7297,-91.1086,9.8,21.9,11111222
ADCP,ioos:station:wmo:42388:1,2021-03-01T12:07:00Z,27.7297,-91.1086,9.6,21.9,11111222
ADCP,ioos:station:wmo:42388:1,2021-03-01T12:17:00Z,27.7297,-91.1086,9.7,22.0,11111222
ADCP,ioos:station:wmo:42388:1,2021-03-01T12:27:00Z,27.7297,-91.1086,9.6,22.1,11111222
ADCP,ioos:station:wmo:42388:1,2021-03-01T12:37:00Z,27.7297,-91.1086,9.7,22.1,11111222
ADCP,ioos:station:wmo:42388:1,2021-03-01T12:47:00Z,27.7297,-91.1086,9.8,22.1,11111222
ADCP,ioos:station:wmo:42388:1,2021-03-01T12:57:00Z,27.7297,-91.1086,9.7,22.1,11111222
ADCP,ioos:station:wmo:42388:1,2021-03-01T13:07:00Z,27.7297,-91.1086,9.7,22.1,11111222
ADCP,ioos:station:wmo:42388:1,2021-03-01T13:17:00Z,27.7297,-91.1086,9.7,22.2,11111222
ADCP,ioos:station:wmo:42388:1,2021-03-01T13:27:00Z,27.7297,-91.1086,9.7,22.1,11111222
ADCP,ioos:station:wmo:42388:1,2021-03-01T13:37:00Z,27.7297,-91.1086,9.7,22.1,11111222
ADCP,ioos:station:wmo:42388:1,2021-03-01T13:47:00Z,27.7297,-91.1086,9.7,22.2,11111222
ADCP,ioos:station:wmo:42388:1,2021-03-01T13:57:00Z,27.7297,-91.1086,9.7,22.2,11111222
ADCP,ioos:station:wmo:42388:1,2021-03-01T14:07:00Z,27.7297,-91.1086,9.8,22.3,11111222
ADCP,ioos:station:wmo:42388:1,2021-03-01T14:17:00Z,27.7297,-91.1086,9.8,22.4,11111222
ADCP,ioos:station:wmo:42388:1,2021-03-01T14:27:00Z,27.7297,-91.1086,9.9,22.6,11111222
ADCP,ioos:station:wmo:42388:1,2021-03-01T14:37:00Z,27.7297,-91.1086,10.1,22.6,11111222
ADCP,ioos:station:wmo:42388:1,2021-03-01T14:47:00Z,27.7297,-91.1086,10.0,22.6,11111222
ADCP,ioos:station:wmo:42388:1,2021-03-01T14:57:00Z,27.7297,-91.1086,9.8,22.6,11111222
ADCP,ioos:station:wmo:42388:1,2021-03-01T15:07:00Z,27.7297,-91.1086,9.7,22.5,11111222
ADCP,ioos:station:wmo:42388:1,2021-03-01T15:17:00Z,27.7297,-91.1086,9.8,22.4,11111222
ADCP,ioos:station:wmo:42388:1,2021-03-01T15:27:00Z,27.7297,-91.1086,10.0,22.4,11111222
ADCP,ioos:station:wmo:42388:1,2021-03-01T15:37:00Z,27.7297,-91.1086,9.8,22.4,11111222
ADCP,ioos:station:wmo:42388:1,2021-03-01T15:47:00Z,27.7297,-91.1086,10.0,22.5,11111222
ADCP,ioos:station:wmo:42388:1,2021-03-01T15:57:00Z,27.7297,-91.1086,9.9,22.4,11111222
ADCP,ioos:station:wmo:42388:1,2021-03-01T16:07:00Z,27.7297,-91.1086,10.0,22.4,11111222
ADCP,ioos:station:wmo:42388:1,2021-03-01T16:17:00Z,27.7297,-91.1086,9.8,22.4,11111222
ADCP,ioos:station:wmo:42388:1,2021-03-01T16:27:00Z,27.7297,-91.1086,10.1,22.6,11111222
ADCP,ioos:station:wmo:42388:1,2021-03-01T16:37:00Z,27.7297,-91.1086,10.1,22.7,11111222
ADCP,ioos:station:wmo:42388:1,2021-03-01T16:47:00Z,27.7297,-91.1086,10.0,22.5,11111222
ADCP,ioos:station:wmo:42388:1,2021-03-01T16:57:00Z,27.7297,-91.1086,10.0,22.4,11111222
ADCP,ioos:station:wmo:42388:1,2021-03-01T17:07:00Z,27.7297,-91.1086,9.8,22.5,11111222
ADCP,ioos:station:wmo:42388:1,2021-03-01T17:17:00Z,27.7297,-91.1086,9.8,22.5,11111222
ADCP,ioos:station:wmo:42388:1,2021-03-01T17:27:00Z,27.7297,-91.1086,9.8,22.5,11111222
ADCP,ioos:station:wmo:42388:1,2021-03-01T17:37:00Z,27.7297,-91.1086,9.9,22.6,11111222
ADCP,ioos:station:wmo:42388:1,2021-03-01T17:47:00Z,27.7297,-91.1086,9.9,22.7,11111222
ADCP,ioos:station:wmo:42388:1,2021-03-01T17:57:00Z,27.7297,-91.1086,10.1,22.7,11111222
ADCP,ioos:station:wmo:42388:1,2021-03-01T18:07:00Z,27.7297,-91.1086,10.1,22.6,11111222
ADCP,ioos:station:wmo:42388:1,2021-03-01T18:17:00Z,27.7297,-91.1086,10.0,22.5,11111222
ADCP,ioos:station:wmo:42388:1,2021-03-01T18:27:00Z,27.7297,-91.1086,9.8,22.5,11111222
ADCP,ioos:station:wmo:42388:1,2021-03-01T18:37:00Z,27.7297,-91.1086,10.0,22.6,11111222
ADCP,ioos:station:wmo:42388:1,2021-03-01T18:47:00Z,27.7297,-91.1086,9.7,22.5,11111222
ADCP,ioos:station:wmo:42388:1,2021-03-01T18:57:00Z,27.7297,-91.1086,9.7,22.4,11111222
ADCP,ioos:station:wmo:42388:1,2021-03-01T19:07:00Z,27.7297,-91.1086,9.8,22.4,11111222
ADCP,ioos:station:wmo:42388:1,2021-03-01T19:17:00Z,27.7297,-91.1086,9.8,22.4,11111222
ADCP,ioos:station:wmo:42388:1,2021-03-01T19:27:00Z,27.7297,-91.1086,9.9,22.4,11111222
ADCP,ioos:station:wmo:42388:1,2021-03-01T19:37:00Z,27.7297,-91.1086,9.7,22.4,11111222
ADCP,ioos:station:wmo:42388:1,2021-03-01T19:47:00Z,27.7297,-91.1086,9.8,22.4,11111222
ADCP,ioos:station:wmo:42388:1,2021-03-01T19:57:00Z,27.7297,-91.1086,9.8,22.5,11111222
ADCP,ioos:station:wmo:42388:1,2021-03-01T20:07:00Z,27.7297,-91.1086,9.9,22.5,11111222
ADCP,ioos:station:wmo:42388:1,2021-03-01T20:18:00Z,27.7297,-91.1086,9.7,22.4,11111222
ADCP,ioos:station:wmo:42388:1,2021-03-01T20:28:00Z,27.7297,-91.1086,9.8,22.5,11111222
ADCP,ioos:station:wmo:42388:1,2021-03-01T20:38:00Z,27.7297,-91.1086,9.7,22.4,11111222
ADCP,ioos:station:wmo:42388:1,2021-03-01T20:48:00Z,27.7297,-91.1086,9.8,22.4,11111222
ADCP,ioos:station:wmo:42388:1,2021-03-01T20:58:00Z,27.7297,-91.1086,9.8,22.4,11111222
ADCP,ioos:station:wmo:42388:1,2021-03-01T21:08:00Z,27.7297,-91.1086,9.9,22.4,11111222
ADCP,ioos:station:wmo:42388:1,2021-03-01T21:18:00Z,27.7297,-91.1086,9.9,22.5,11111222
ADCP,ioos:station:wmo:42388:1,2021-03-01T21:28:00Z,27.7297,-91.1086,9.9,22.6,11111222
ADCP,ioos:station:wmo:42388:1,2021-03-01T21:38:00Z,27.7297,-91.1086,10.0,22.5,11111222
ADCP,ioos:station:wmo:42388:1,2021-03-01T21:48:00Z,27.7297,-91.1086,10.0,22.5,11111222
ADCP,ioos:station:wmo:42388:1,2021-03-01T21:58:00Z,27.7297,-91.1086,10.1,22.5,11111222
ADCP,ioos:station:wmo:42388:1,2021-03-01T22:08:00Z,27.7297,-91.1086,9.8,22.5,11111222
ADCP,ioos:station:wmo:42388:1,2021-03-01T22:18:00Z,27.7297,-91.1086,9.9,22.5,11111222
ADCP,ioos:station:wmo:42388:1,2021-03-01T22:28:00Z,27.7297,-91.1086,9.9,22.5,11111222
ADCP,ioos:station:wmo:42388:1,2021-03-01T22:38:00Z,27.7297,-91.1086,9.8,22.5,11111222
ADCP,ioos:station:wmo:42388:1,2021-03-01T22:48:00Z,27.7297,-91.1086,10.0,22.5,11111222
ADCP,ioos:station:wmo:42388:1,2021-03-01T22:58:00Z,27.7297,-91.1086,9.8,22.6,11111222
ADCP,ioos:station:wmo:42388:1,2021-03-01T23:08:00Z,27.7297,-91.1086,10.0,22.5,11111222
ADCP,ioos:station:wmo:42388:1,2021-03-01T23:18:00Z,27.7297,-91.1086,9.8,22.5,11111222
ADCP,ioos:station:wmo:42388:1,2021-03-01T23:28:00Z,27.7297,-91.1086,10.0,22.6,11111222
ADCP,ioos:station:wmo:42388:1,2021-03-01T23:38:00Z,27.7297,-91.1086,9.8,22.6,11111222
ADCP,ioos:station:wmo:42388:1,2021-03-01T23:48:00Z,27.7297,-91.1086,9.9,22.6,11111222
ADCP,ioos:station:wmo:42388:1,2021-03-01T23:58:00Z,27.7297,-91.1086,10.0,22.7,11111222
ADCP,ioos:station:wmo:42388:1,2021-03-02T00:08:00Z,27.7297,-91.1086,10.2,22.8,11111222
ADCP,ioos:station:wmo:42388:1,2021-03-02T00:18:00Z,27.7297,-91.1086,10.0,22.8,11111222
ADCP,ioos:station:wmo:42388:1,2021-03-02T00:28:00Z,27.7297,-91.1086,10.2,22.9,11111222
ADCP,ioos:station:wmo:42388:1,2021-03-02T00:38:00Z,27.7297,-91.1086,10.4,22.9,11111222
ADCP,ioos:station:wmo:42388:1,2021-03-02T00:48:00Z,27.7297,-91.1086,10.4,23.0,11111222
ADCP,ioos:station:wmo:42388:1,2021-03-02T00:58:00Z,27.7297,-91.1086,10.6,23.0,11111222
ADCP,ioos:station:wmo:42388:1,2021-03-02T01:08:00Z,27.7297,-91.1086,10.2,23.0,11111222
ADCP,ioos:station:wmo:42388:1,2021-03-02T01:18:00Z,27.7297,-91.1086,10.3,23.0,11111222
ADCP,ioos:station:wmo:42388:1,2021-03-02T01:28:00Z,27.7297,-91.1086,10.3,22.9,11111222
ADCP,ioos:station:wmo:42388:1,2021-03-02T01:38:00Z,27.7297,-91.1086,10.5,23.0,11111222
ADCP,ioos:station:wmo:42388:1,2021-03-02T01:48:00Z,27.7297,-91.1086,10.6,23.0,11111222
ADCP,ioos:station:wmo:42388:1,2021-03-02T01:58:00Z,27.7297,-91.1086,10.7,23.0,11111222
ADCP,ioos:station:wmo:42388:1,2021-03-02T02:08:00Z,27.7297,-91.1086,10.5,23.0,11111222
ADCP,ioos:station:wmo:42388:1,2021-03-02T02:18:00Z,27.7297,-91.1086,10.1,22.8,11111222
ADCP,ioos:station:wmo:42388:1,2021-03-02T02:28:00Z,27.7297,-91.1086,10.3,22.8,11111222
ADCP,ioos:station:wmo:42388:1,2021-03-02T02:38:00Z,27.7297,-91.1086,10.6,23.0,11111222
ADCP,ioos:station:wmo:42388:1,2021-03-02T02:48:00Z,27.7297,-91.1086,10.7,23.1,11111222
ADCP,ioos:station:wmo:42388:1,2021-03-02T02:58:00Z,27.7297,-91.1086,10.2,22.8,11111222
ADCP,ioos:station:wmo:42388:1,2021-03-02T03:08:00Z,27.7297,-91.1086,10.3,22.9,11111222
ADCP,ioos:station:wmo:42388:1,2021-03-02T03:18:00Z,27.7297,-91.1086,10.2,22.8,11111222
ADCP,ioos:station:wmo:42388:1,2021-03-02T03:28:00Z,27.7297,-91.1086,9.9,22.7,11111222
ADCP,ioos:station:wmo:42388:1,2021-03-02T03:38:00Z,27.7297,-91.1086,9.8,22.4,11111222
ADCP,ioos:station:wmo:42388:1,2021-03-02T03:48:00Z,27.7297,-91.1086,9.9,22.6,11111222
ADCP,ioos:station:wmo:42388:1,2021-03-02T03:58:00Z,27.7297,-91.1086,10.4,23.0,11111222
ADCP,ioos:station:wmo:42388:1,2021-03-02T04:08:00Z,27.7297,-91.1086,10.3,22.8,11111222
ADCP,ioos:station:wmo:42388:1,2021-03-02T04:18:00Z,27.7297,-91.1086,9.8,22.4,11111222
ADCP,ioos:station:wmo:42388:1,2021-03-02T04:28:00Z,27.7297,-91.1086,9.9,22.4,11111222
ADCP,ioos:station:wmo:42388:1,2021-03-02T04:38:00Z,27.7297,-91.1086,9.8,22.5,11111222
ADCP,ioos:station:wmo:42388:1,2021-03-02T04:48:00Z,27.7297,-91.1086,9.7,22.4,11111222
ADCP,ioos:station:wmo:42388:1,2021-03-02T04:58:00Z,27.7297,-91.1086,9.7,22.3,11111222
ADCP,ioos:station:wmo:42388:1,2021-03-02T05:08:00Z,27.7297,-91.1086,9.7,22.6,11111222
ADCP,ioos:station:wmo:42388:1,2021-03-02T05:18:00Z,27.7297,-91.1086,10.0,22.7,11111222
ADCP,ioos:station:wmo:42388:1,2021-03-02T05:28:00Z,27.7297,-91.1086,9.9,22.4,11111222
ADCP,ioos:station:wmo:42388:1,2021-03-02T05:38:00Z,27.7297,-91.1086,9.8,22.3,11111222
ADCP,ioos:station:wmo:42388:1,2021-03-02T05:48:00Z,27.7297,-91.1086,9.7,22.4,11111222
ADCP,ioos:station:wmo:42388:1,2021-03-02T05:58:00Z,27.7297,-91.1086,9.9,22.4,11111222
ADCP,ioos:station:wmo:42388:1,2021-03-02T06:08:00Z,27.7297,-91.1086,9.8,22.4,11111222
ADCP,ioos:station:wmo:42388:1,2021-03-02T06:18:00Z,27.7297,-91.1086,10.0,22.7,11111222
ADCP,ioos:station:wmo:42388:1,2021-03-02T06:28:00Z,27.7297,-91.1086,10.4,23.0,11111222
ADCP,ioos:station:wmo:42388:1,2021-03-02T06:38:00Z,27.7297,-91.1086,10.2,22.9,11111222
ADCP,ioos:station:wmo:42388:1,2021-03-02T06:48:00Z,27.7297,-91.1086,10.3,22.9,11111222
ADCP,ioos:station:wmo:42388:1,2021-03-02T06:58:00Z,27.7297,-91.1086,10.1,22.5,11111222
ADCP,ioos:station:wmo:42388:1,2021-03-02T07:08:00Z,27.7297,-91.1086,9.8,22.4,11111222
ADCP,ioos:station:wmo:42388:1,2021-03-02T07:18:00Z,27.7297,-91.1086,9.8,22.5,11111222
ADCP,ioos:station:wmo:42388:1,2021-03-02T07:28:00Z,27.7297,-91.1086,10.0,22.5,11111222
ADCP,ioos:station:wmo:42388:1,2021-03-02T07:38:00Z,27.7297,-91.1086,9.8,22.5,11111222
ADCP,ioos:station:wmo:42388:1,2021-03-02T07:48:00Z,27.7297,-91.1086,10.1,22.8,11111222
ADCP,ioos:station:wmo:42388:1,2021-03-02T07:58:00Z,27.7297,-91.1086,10.5,23.0,11111222
ADCP,ioos:station:wmo:42388:1,2021-03-02T08:08:00Z,27.7297,-91.1086,10.1,22.7,11111222
ADCP,ioos:station:wmo:42388:1,2021-03-02T08:18:00Z,27.7297,-91.1086,10.0,22.7,11111222
ADCP,ioos:station:wmo:42388:1,2021-03-02T08:28:00Z,27.7297,-91.1086,10.2,22.8,11111222
ADCP,ioos:station:wmo:42388:1,2021-03-02T08:38:00Z,27.7297,-91.1086,10.0,22.9,11111222
ADCP,ioos:station:wmo:42388:1,2021-03-02T08:48:00Z,27.7297,-91.1086,10.1,22.8,11111222
ADCP,ioos:station:wmo:42388:1,2021-03-02T08:58:00Z,27.7297,-91.1086,10.3,23.0,11111222
ADCP,ioos:station:wmo:42388:1,2021-03-02T09:08:00Z,27.7297,-91.1086,10.6,23.2,11111222
ADCP,ioos:station:wmo:42388:1,2021-03-02T09:18:00Z,27.7297,-91.1086,10.5,23.1,11111222
ADCP,ioos:station:wmo:42388:1,2021-03-02T09:28:00Z,27.7297,-91.1086,10.7,23.3,11111222
ADCP,ioos:station:wmo:42388:1,2021-03-02T09:38:00Z,27.7297,-91.1086,10.7,23.3,11111222
ADCP,ioos:station:wmo:42388:1,2021-03-02T09:48:00Z,27.7297,-91.1086,10.8,23.3,11111222
ADCP,ioos:station:wmo:42388:1,2021-03-02T09:58:00Z,27.7297,-91.1086,10.6,23.3,11111222
ADCP,ioos:station:wmo:42388:1,2021-03-02T10:08:00Z,27.7297,-91.1086,10.6,23.2,11111222
ADCP,ioos:station:wmo:42388:1,2021-03-02T10:18:00Z,27.7297,-91.1086,10.8,23.3,11111222
ADCP,ioos:station:wmo:42388:1,2021-03-02T10:28:00Z,27.7297,-91.1086,10.8,23.3,11111222
ADCP,ioos:station:wmo:42388:1,2021-03-02T10:38:00Z,27.7297,-91.1086,11.0,23.3,11111222
ADCP,ioos:station:wmo:42388:1,2021-03-02T10:48:00Z,27.7297,-91.1086,10.8,23.3,11111222
ADCP,ioos:station:wmo:42388:1,2021-03-02T10:58:00Z,27.7297,-91.1086,10.8,23.3,11111222
ADCP,ioos:station:wmo:42388:1,2021-03-02T11:08:00Z,27.7297,-91.1086,10.9,23.3,11111222
ADCP,ioos:station:wmo:42388:1,2021-03-02T11:18:00Z,27.7297,-91.1086,10.9,23.3,11111222
ADCP,ioos:station:wmo:42388:1,2021-03-02T11:28:00Z,27.7297,-91.1086,10.9,23.3,11111222
ADCP,ioos:station:wmo:42388:1,2021-03-02T11:38:00Z,27.7297,-91.1086,11.0,23.3,11111222
ADCP,ioos:station:wmo:42388:1,2021-03-02T11:48:00Z,27.7297,-91.1086,10.9,23.4,11111222
ADCP,ioos:station:wmo:42388:1,2021-03-02T11:58:00Z,27.7297,-91.1086,10.9,23.3,11111222
ADCP,ioos:station:wmo:42388:1,2021-03-02T12:08:00Z,27.7297,-91.1086,10.9,23.3,11111222
ADCP,ioos:station:wmo:42388:1,2021-03-02T12:18:00Z,27.7297,-91.1086,10.8,23.2,11111222
ADCP,ioos:station:wmo:42388:1,2021-03-02T12:28:00Z,27.7297,-91.1086,10.8,23.3,11111222
ADCP,ioos:station:wmo:42388:1,2021-03-02T12:38:00Z,27.7297,-91.1086,10.8,23.2,11111222
ADCP,ioos:station:wmo:42388:1,2021-03-02T12:48:00Z,27.7297,-91.1086,10.7,23.2,11111222
ADCP,ioos:station:wmo:42388:1,2021-03-02T12:58:00Z,27.7297,-91.1086,10.6,23.3,11111222
ADCP,ioos:station:wmo:42388:1,2021-03-02T13:08:00Z,27.7297,-91.1086,10.5,23.1,11111222
ADCP,ioos:station:wmo:42388:1,2021-03-02T13:18:00Z,27.7297,-91.1086,10.7,23.3,11111222
ADCP,ioos:station:wmo:42388:1,2021-03-02T13:28:00Z,27.7297,-91.1086,10.8,23.4,11111222
ADCP,ioos:station:wmo:42388:1,2021-03-02T13:38:00Z,27.7297,-91.1086,10.9,23.3,11111222
ADCP,ioos:station:wmo:42388:1,2021-03-02T13:49:00Z,27.7297,-91.1086,10.7,23.3,11111222
ADCP,ioos:station:wmo:42388:1,2021-03-02T13:59:00Z,27.7297,-91.1086,10.8,23.3,11111222
ADCP,ioos:station:wmo:42388:1,2021-03-02T14:09:00Z,27.7297,-91.1086,10.7,23.2,11111222
ADCP,ioos:station:wmo:42388:1,2021-03-02T14:19:00Z,27.7297,-91.1086,10.5,23.3,11111222
ADCP,ioos:station:wmo:42388:1,2021-03-02T14:29:00Z,27.7297,-91.1086,10.9,23.3,11111222
ADCP,ioos:station:wmo:42388:1,2021-03-02T14:39:00Z,27.7297,-91.1086,10.7,23.3,11111222
ADCP,ioos:station:wmo:42388:1,2021-03-02T14:49:00Z,27.7297,-91.1086,10.7,23.2,11111222
ADCP,ioos:station:wmo:42388:1,2021-03-02T14:59:00Z,27.7297,-91.1086,10.6,23.2,11111222
ADCP,ioos:station:wmo:42388:1,2021-03-02T15:09:00Z,27.7297,-91.1086,10.8,23.2,11111222
ADCP,ioos:station:wmo:42388:1,2021-03-02T15:19:00Z,27.7297,-91.1086,10.9,23.2,11111222
ADCP,ioos:station:wmo:42388:1,2021-03-02T15:29:00Z,27.7297,-91.1086,10.8,23.3,11111222
ADCP,ioos:station:wmo:42388:1,2021-03-02T15:39:00Z,27.7297,-91.1086,10.7,23.3,11111222
ADCP,ioos:station:wmo:42388:1,2021-03-02T15:49:00Z,27.7297,-91.1086,10.7,23.2,11111222
ADCP,ioos:station:wmo:42388:1,2021-03-02T15:59:00Z,27.7297,-91.1086,10.6,23.2,11111222
ADCP,ioos:station:wmo:42388:1,2021-03-02T16:09:00Z,27.7297,-91.1086,10.8,23.3,11111222
ADCP,ioos:station:wmo:42388:1,2021-03-02T16:19:00Z,27.7297,-91.1086,10.7,23.2,11111222
ADCP,ioos:station:wmo:42388:1,2021-03-02T16:29:00Z,27.7297,-91.1086,10.8,23.3,11111222
ADCP,ioos:station:wmo:42388:1,2021-03-02T16:39:00Z,27.7297,-91.1086,10.9,23.3,11111222
ADCP,ioos:station:wmo:42388:1,2021-03-02T16:49:00Z,27.7297,-91.1086,10.8,23.2,11111222
ADCP,ioos:station:wmo:42388:1,2021-03-02T16:59:00Z,27.7297,-91.1086,10.6,23.2,11111222
ADCP,ioos:station:wmo:42388:1,2021-03-02T17:09:00Z,27.7297,-91.1086,10.5,23.1,11111222
ADCP,ioos:station:wmo:42388:1,2021-03-02T17:19:00Z,27.7297,-91.1086,10.7,23.3,11111222
ADCP,ioos:station:wmo:42388:1,2021-03-02T17:29:00Z,27.7297,-91.1086,10.8,23.3,11111222
ADCP,ioos:station:wmo:42388:1,2021-03-02T17:39:00Z,27.7297,-91.1086,10.8,23.4,11111222
ADCP,ioos:station:wmo:42388:1,2021-03-02T17:49:00Z,27.7297,-91.1086,10.8,23.4,11111222
ADCP,ioos:station:wmo:42388:1,2021-03-02T17:59:00Z,27.7297,-91.1086,10.4,23.0,11111222
ADCP,ioos:station:wmo:42388:1,2021-03-02T18:09:00Z,27.7297,-91.1086,10.9,23.4,11111222
ADCP,ioos:station:wmo:42388:1,2021-03-02T18:19:00Z,27.7297,-91.1086,10.8,23.4,11111222
ADCP,ioos:station:wmo:42388:1,2021-03-02T18:29:00Z,27.7297,-91.1086,10.8,23.4,11111222
ADCP,ioos:station:wmo:42388:1,2021-03-02T18:39:00Z,27.7297,-91.1086,10.8,23.4,11111222
ADCP,ioos:station:wmo:42388:1,2021-03-02T18:49:00Z,27.7297,-91.1086,11.0,23.5,11111222
ADCP,ioos:station:wmo:42388:1,2021-03-02T18:59:00Z,27.7297,-91.1086,10.8,23.4,11111222
ADCP,ioos:station:wmo:42388:1,2021-03-02T19:09:00Z,27.7297,-91.1086,10.7,23.1,11111222
ADCP,ioos:station:wmo:42388:1,2021-03-02T19:19:00Z,27.7297,-91.1086,10.0,22.7,11111222
ADCP,ioos:station:wmo:42388:1,2021-03-02T19:29:00Z,27.7297,-91.1086,10.1,22.8,11111222
ADCP,ioos:station:wmo:42388:1,2021-03-02T19:39:00Z,27.7297,-91.1086,9.8,22.4,11111222
ADCP,ioos:station:wmo:42388:1,2021-03-02T19:49:00Z,27.7297,-91.1086,10.0,22.7,11111222
ADCP,ioos:station:wmo:42388:1,2021-03-02T19:59:00Z,27.7297,-91.1086,10.5,22.9,11111222
ADCP,ioos:station:wmo:42388:1,2021-03-02T20:09:00Z,27.7297,-91.1086,10.0,22.6,11111222
ADCP,ioos:station:wmo:42388:1,2021-03-02T20:19:00Z,27.7297,-91.1086,9.9,22.5,11111222
ADCP,ioos:station:wmo:42388:1,2021-03-02T20:29:00Z,27.7297,-91.1086,9.8,22.3,11111222
ADCP,ioos:station:wmo:42388:1,2021-03-02T20:39:00Z,27.7297,-91.1086,9.9,22.7,11111222
ADCP,ioos:station:wmo:42388:1,2021-03-02T20:49:00Z,27.7297,-91.1086,10.2,22.7,11111222
ADCP,ioos:station:wmo:42388:1,2021-03-02T20:59:00Z,27.7297,-91.1086,10.4,23.0,11111222
ADCP,ioos:station:wmo:42388:1,2021-03-02T21:09:00Z,27.7297,-91.1086,10.6,23.1,11111222
ADCP,ioos:station:wmo:42388:1,2021-03-02T21:19:00Z,27.7297,-91.1086,10.7,23.3,11111222
ADCP,ioos:station:wmo:42388:1,2021-03-02T21:29:00Z,27.7297,-91.1086,10.7,23.3,11111222